Year,Month,Day,Hour,Minute,Value (Times are PST for temperature in C)
2018,07,15,00,00,23.90
2018,07,15,00,01,23.90
2018,07,15,00,02,23.90
2018,07,15,00,03,23.80
2018,07,15,00,04,23.80
2018,07,15,00,05,23.90
2018,07,15,00,06,23.90
2018,07,15,00,07,23.80
2018,07,15,00,08,23.80
2018,07,15,00,09,23.80
2018,07,15,00,10,23.90
2018,07,15,00,11,23.90
2018,07,15,00,12,23.90
2018,07,15,00,13,23.90
2018,07,15,00,14,23.90
2018,07,15,00,15,24.00
2018,07,15,00,16,24.00
2018,07,15,00,17,24.00
2018,07,15,00,18,24.00
2018,07,15,00,19,24.00
2018,07,15,00,20,24.00
2018,07,15,00,21,24.00
2018,07,15,00,22,24.00
2018,07,15,00,23,24.00
2018,07,15,00,24,24.00
2018,07,15,00,25,24.10
2018,07,15,00,26,24.10
2018,07,15,00,27,24.10
2018,07,15,00,28,24.20
2018,07,15,00,29,24.20
2018,07,15,00,30,24.30
2018,07,15,00,31,24.30
2018,07,15,00,32,24.20
2018,07,15,00,33,24.20
2018,07,15,00,34,24.20
2018,07,15,00,35,24.10
2018,07,15,00,36,24.10
2018,07,15,00,37,24.00
2018,07,15,00,38,24.00
2018,07,15,00,39,23.90
2018,07,15,00,40,23.90
2018,07,15,00,41,23.80
2018,07,15,00,42,23.80
2018,07,15,00,43,23.80
2018,07,15,00,44,23.80
2018,07,15,00,45,23.80
2018,07,15,00,46,23.80
2018,07,15,00,47,23.80
2018,07,15,00,48,23.80
2018,07,15,00,49,23.80
2018,07,15,00,50,23.80
2018,07,15,00,51,23.80
2018,07,15,00,52,23.80
2018,07,15,00,53,23.80
2018,07,15,00,54,23.90
2018,07,15,00,55,23.90
2018,07,15,00,56,24.00
2018,07,15,00,57,24.00
2018,07,15,00,58,24.00
2018,07,15,00,59,24.00
2018,07,15,01,00,24.00
2018,07,15,01,01,24.10
2018,07,15,01,02,24.10
2018,07,15,01,03,24.00
2018,07,15,01,04,24.00
2018,07,15,01,05,23.90
2018,07,15,01,06,23.90
2018,07,15,01,07,23.90
2018,07,15,01,08,23.80
2018,07,15,01,09,23.80
2018,07,15,01,10,23.80
2018,07,15,01,11,23.90
2018,07,15,01,12,23.90
2018,07,15,01,13,24.00
2018,07,15,01,14,24.00
2018,07,15,01,15,24.10
2018,07,15,01,16,24.10
2018,07,15,01,17,24.20
2018,07,15,01,18,24.20
2018,07,15,01,19,24.20
2018,07,15,01,20,24.30
2018,07,15,01,21,24.30
2018,07,15,01,22,24.30
2018,07,15,01,23,24.30
2018,07,15,01,24,24.30
2018,07,15,01,25,24.20
2018,07,15,01,26,24.20
2018,07,15,01,27,24.20
2018,07,15,01,28,24.20
2018,07,15,01,29,24.20
2018,07,15,01,30,24.10
2018,07,15,01,31,24.10
2018,07,15,01,32,24.10
2018,07,15,01,33,24.00
2018,07,15,01,34,24.00
2018,07,15,01,35,23.90
2018,07,15,01,36,23.90
2018,07,15,01,37,23.80
2018,07,15,01,38,23.80
2018,07,15,01,39,23.80
2018,07,15,01,40,23.80
2018,07,15,01,41,23.70
2018,07,15,01,42,23.70
2018,07,15,01,43,23.70
2018,07,15,01,44,23.60
2018,07,15,01,45,23.60
2018,07,15,01,46,23.60
2018,07,15,01,47,23.50
2018,07,15,01,48,23.50
2018,07,15,01,49,23.50
2018,07,15,01,50,23.50
2018,07,15,01,51,23.40
2018,07,15,01,52,23.40
2018,07,15,01,53,23.40
2018,07,15,01,54,23.40
2018,07,15,01,55,23.40
2018,07,15,01,56,23.40
2018,07,15,01,57,23.40
2018,07,15,01,58,23.40
2018,07,15,01,59,23.40
2018,07,15,02,00,23.40
2018,07,15,02,01,23.40
2018,07,15,02,02,23.40
2018,07,15,02,03,23.40
2018,07,15,02,04,23.40
2018,07,15,02,05,23.40
2018,07,15,02,06,23.40
2018,07,15,02,07,23.40
2018,07,15,02,08,23.30
2018,07,15,02,09,23.30
2018,07,15,02,10,23.30
2018,07,15,02,11,23.40
2018,07,15,02,12,23.40
2018,07,15,02,13,23.40
2018,07,15,02,14,23.40
2018,07,15,02,15,23.40
2018,07,15,02,16,23.40
2018,07,15,02,17,23.40
2018,07,15,02,18,23.40
2018,07,15,02,19,23.40
2018,07,15,02,20,23.40
2018,07,15,02,21,23.40
2018,07,15,02,22,23.40
2018,07,15,02,23,23.40
2018,07,15,02,24,23.40
2018,07,15,02,25,23.40
2018,07,15,02,26,23.40
2018,07,15,02,27,23.40
2018,07,15,02,28,23.40
2018,07,15,02,29,23.40
2018,07,15,02,30,23.30
2018,07,15,02,31,23.30
2018,07,15,02,32,23.30
2018,07,15,02,33,23.30
2018,07,15,02,34,23.30
2018,07,15,02,35,23.30
2018,07,15,02,36,23.30
2018,07,15,02,37,23.30
2018,07,15,02,38,23.30
2018,07,15,02,39,23.30
2018,07,15,02,40,23.30
2018,07,15,02,41,23.20
2018,07,15,02,42,23.20
2018,07,15,02,43,23.20
2018,07,15,02,44,23.20
2018,07,15,02,45,23.20
2018,07,15,02,46,23.20
2018,07,15,02,47,23.20
2018,07,15,02,48,23.20
2018,07,15,02,49,23.20
2018,07,15,02,50,23.10
2018,07,15,02,51,23.10
2018,07,15,02,52,23.10
2018,07,15,02,53,23.10
2018,07,15,02,54,23.10
2018,07,15,02,55,23.00
2018,07,15,02,56,23.00
2018,07,15,02,57,22.90
2018,07,15,02,58,22.90
2018,07,15,02,59,22.90
2018,07,15,03,00,22.80
2018,07,15,03,01,22.80
2018,07,15,03,02,22.80
2018,07,15,03,03,22.80
2018,07,15,03,04,22.70
2018,07,15,03,05,22.70
2018,07,15,03,06,22.70
2018,07,15,03,07,22.60
2018,07,15,03,08,22.60
2018,07,15,03,09,22.60
2018,07,15,03,10,22.50
2018,07,15,03,11,22.50
2018,07,15,03,12,22.50
2018,07,15,03,13,22.40
2018,07,15,03,14,22.40
2018,07,15,03,15,22.40
2018,07,15,03,16,22.40
2018,07,15,03,17,22.40
2018,07,15,03,18,22.40
2018,07,15,03,19,22.30
2018,07,15,03,20,22.30
2018,07,15,03,21,22.30
2018,07,15,03,22,22.30
2018,07,15,03,23,22.30
2018,07,15,03,24,22.30
2018,07,15,03,25,22.30
2018,07,15,03,26,22.30
2018,07,15,03,27,22.30
2018,07,15,03,28,22.30
2018,07,15,03,29,22.30
2018,07,15,03,30,22.30
2018,07,15,03,31,22.30
2018,07,15,03,32,22.30
2018,07,15,03,33,22.20
2018,07,15,03,34,22.20
2018,07,15,03,35,22.20
2018,07,15,03,36,22.20
2018,07,15,03,37,22.10
2018,07,15,03,38,22.10
2018,07,15,03,39,22.10
2018,07,15,03,40,22.10
2018,07,15,03,41,22.10
2018,07,15,03,42,22.10
2018,07,15,03,43,22.10
2018,07,15,03,44,22.10
2018,07,15,03,45,22.10
2018,07,15,03,46,22.10
2018,07,15,03,47,22.10
2018,07,15,03,48,22.10
2018,07,15,03,49,22.10
2018,07,15,03,50,22.10
2018,07,15,03,51,22.10
2018,07,15,03,52,22.10
2018,07,15,03,53,22.10
2018,07,15,03,54,22.10
2018,07,15,03,55,22.10
2018,07,15,03,56,22.10
2018,07,15,03,57,22.10
2018,07,15,03,58,22.10
2018,07,15,03,59,22.10
2018,07,15,04,00,22.10
2018,07,15,04,01,22.10
2018,07,15,04,02,22.10
2018,07,15,04,03,22.10
2018,07,15,04,04,22.10
2018,07,15,04,05,22.10
2018,07,15,04,06,22.10
2018,07,15,04,07,22.20
2018,07,15,04,08,22.20
2018,07,15,04,09,22.20
2018,07,15,04,10,22.20
2018,07,15,04,11,22.20
2018,07,15,04,12,22.20
2018,07,15,04,13,22.20
2018,07,15,04,14,22.20
2018,07,15,04,15,22.20
2018,07,15,04,16,22.20
2018,07,15,04,17,22.20
2018,07,15,04,18,22.20
2018,07,15,04,19,22.20
2018,07,15,04,20,22.10
2018,07,15,04,21,22.10
2018,07,15,04,22,22.10
2018,07,15,04,23,22.10
2018,07,15,04,24,22.10
2018,07,15,04,25,22.10
2018,07,15,04,26,22.10
2018,07,15,04,27,22.10
2018,07,15,04,28,22.10
2018,07,15,04,29,22.10
2018,07,15,04,30,22.10
2018,07,15,04,31,22.00
2018,07,15,04,32,22.00
2018,07,15,04,33,22.00
2018,07,15,04,34,21.90
2018,07,15,04,35,21.90
2018,07,15,04,36,21.90
2018,07,15,04,37,21.90
2018,07,15,04,38,21.90
2018,07,15,04,39,21.90
2018,07,15,04,40,21.80
2018,07,15,04,41,21.80
2018,07,15,04,42,21.80
2018,07,15,04,43,21.80
2018,07,15,04,44,21.80
2018,07,15,04,45,21.80
2018,07,15,04,46,21.80
2018,07,15,04,47,21.80
2018,07,15,04,48,21.80
2018,07,15,04,49,21.80
2018,07,15,04,50,21.80
2018,07,15,04,51,21.70
2018,07,15,04,52,21.70
2018,07,15,04,53,21.70
2018,07,15,04,54,21.70
2018,07,15,04,55,21.80
2018,07,15,04,56,21.80
2018,07,15,04,57,21.80
2018,07,15,04,58,21.80
2018,07,15,04,59,21.80
2018,07,15,05,00,21.80
2018,07,15,05,01,21.80
2018,07,15,05,02,21.80
2018,07,15,05,03,21.80
2018,07,15,05,04,21.80
2018,07,15,05,05,21.80
2018,07,15,05,06,21.80
2018,07,15,05,07,21.80
2018,07,15,05,08,21.80
2018,07,15,05,09,21.80
2018,07,15,05,10,21.70
2018,07,15,05,11,21.70
2018,07,15,05,12,21.60
2018,07,15,05,13,21.60
2018,07,15,05,14,21.60
2018,07,15,05,15,21.50
2018,07,15,05,16,21.50
2018,07,15,05,17,21.50
2018,07,15,05,18,21.40
2018,07,15,05,19,21.40
2018,07,15,05,20,21.40
2018,07,15,05,21,21.40
2018,07,15,05,22,21.30
2018,07,15,05,23,21.40
2018,07,15,05,24,21.40
2018,07,15,05,25,21.40
2018,07,15,05,26,21.30
2018,07,15,05,27,21.30
2018,07,15,05,28,21.30
2018,07,15,05,29,21.30
2018,07,15,05,30,21.40
2018,07,15,05,31,21.40
2018,07,15,05,32,21.40
2018,07,15,05,33,21.30
2018,07,15,05,34,21.30
2018,07,15,05,35,21.30
2018,07,15,05,36,21.30
2018,07,15,05,37,21.30
2018,07,15,05,38,21.30
2018,07,15,05,39,21.30
2018,07,15,05,40,21.30
2018,07,15,05,41,21.30
2018,07,15,05,42,21.30
2018,07,15,05,43,21.30
2018,07,15,05,44,21.30
2018,07,15,05,45,21.20
2018,07,15,05,46,21.20
2018,07,15,05,47,21.20
2018,07,15,05,48,21.20
2018,07,15,05,49,21.20
2018,07,15,05,50,21.20
2018,07,15,05,51,21.20
2018,07,15,05,52,21.20
2018,07,15,05,53,21.20
2018,07,15,05,54,21.30
2018,07,15,05,55,21.30
2018,07,15,05,56,21.30
2018,07,15,05,57,21.20
2018,07,15,05,58,21.30
2018,07,15,05,59,21.30
2018,07,15,06,00,21.20
2018,07,15,06,01,21.30
2018,07,15,06,02,21.20
2018,07,15,06,03,21.20
2018,07,15,06,04,21.20
2018,07,15,06,05,21.20
2018,07,15,06,06,21.20
2018,07,15,06,07,21.20
2018,07,15,06,08,21.20
2018,07,15,06,09,21.20
2018,07,15,06,10,21.20
2018,07,15,06,11,21.20
2018,07,15,06,12,21.10
2018,07,15,06,13,21.10
2018,07,15,06,14,21.10
2018,07,15,06,15,21.10
2018,07,15,06,16,21.10
2018,07,15,06,17,21.00
2018,07,15,06,18,21.00
2018,07,15,06,19,21.00
2018,07,15,06,20,21.00
2018,07,15,06,21,21.00
2018,07,15,06,22,21.00
2018,07,15,06,23,21.00
2018,07,15,06,24,21.00
2018,07,15,06,25,21.00
2018,07,15,06,26,21.00
2018,07,15,06,27,21.00
2018,07,15,06,28,21.00
2018,07,15,06,29,21.00
2018,07,15,06,30,21.00
2018,07,15,06,31,21.00
2018,07,15,06,32,21.00
2018,07,15,06,33,21.00
2018,07,15,06,34,21.00
2018,07,15,06,35,21.00
2018,07,15,06,36,21.00
2018,07,15,06,37,21.00
2018,07,15,06,38,21.00
2018,07,15,06,39,21.00
2018,07,15,06,40,21.00
2018,07,15,06,41,21.10
2018,07,15,06,42,21.10
2018,07,15,06,43,21.10
2018,07,15,06,44,21.10
2018,07,15,06,45,21.10
2018,07,15,06,46,21.10
2018,07,15,06,47,21.10
2018,07,15,06,48,21.10
2018,07,15,06,49,21.10
2018,07,15,06,50,21.10
2018,07,15,06,51,21.10
2018,07,15,06,52,21.20
2018,07,15,06,53,21.20
2018,07,15,06,54,21.20
2018,07,15,06,55,21.20
2018,07,15,06,56,21.20
2018,07,15,06,57,21.20
2018,07,15,06,58,21.20
2018,07,15,06,59,21.30
2018,07,15,07,00,21.30
2018,07,15,07,01,21.30
2018,07,15,07,02,21.30
2018,07,15,07,03,21.30
2018,07,15,07,04,21.30
2018,07,15,07,05,21.40
2018,07,15,07,06,21.40
2018,07,15,07,07,21.40
2018,07,15,07,08,21.40
2018,07,15,07,09,21.40
2018,07,15,07,10,21.40
2018,07,15,07,11,21.40
2018,07,15,07,12,21.50
2018,07,15,07,13,21.50
2018,07,15,07,14,21.50
2018,07,15,07,15,21.60
2018,07,15,07,16,21.60
2018,07,15,07,17,21.60
2018,07,15,07,18,21.60
2018,07,15,07,19,21.60
2018,07,15,07,20,21.70
2018,07,15,07,21,21.70
2018,07,15,07,22,21.70
2018,07,15,07,23,21.70
2018,07,15,07,24,21.80
2018,07,15,07,25,21.80
2018,07,15,07,26,21.80
2018,07,15,07,27,21.80
2018,07,15,07,28,21.80
2018,07,15,07,29,21.90
2018,07,15,07,30,21.90
2018,07,15,07,31,21.90
2018,07,15,07,32,21.90
2018,07,15,07,33,21.90
2018,07,15,07,34,21.90
2018,07,15,07,35,21.90
2018,07,15,07,36,22.00
2018,07,15,07,37,22.00
2018,07,15,07,38,22.00
2018,07,15,07,39,22.10
2018,07,15,07,40,22.10
2018,07,15,07,41,22.10
2018,07,15,07,42,22.20
2018,07,15,07,43,22.20
2018,07,15,07,44,22.20
2018,07,15,07,45,22.20
2018,07,15,07,46,22.20
2018,07,15,07,47,22.30
2018,07,15,07,48,22.30
2018,07,15,07,49,22.30
2018,07,15,07,50,22.30
2018,07,15,07,51,22.30
2018,07,15,07,52,22.30
2018,07,15,07,53,22.30
2018,07,15,07,54,22.40
2018,07,15,07,55,22.30
2018,07,15,07,56,22.30
2018,07,15,07,57,22.30
2018,07,15,07,58,22.30
2018,07,15,07,59,22.30
2018,07,15,08,00,22.30
2018,07,15,08,01,22.30
2018,07,15,08,02,22.30
2018,07,15,08,03,22.30
2018,07,15,08,04,22.30
2018,07,15,08,05,22.30
2018,07,15,08,06,22.30
2018,07,15,08,07,22.30
2018,07,15,08,08,22.30
2018,07,15,08,09,22.30
2018,07,15,08,10,22.30
2018,07,15,08,11,22.30
2018,07,15,08,12,22.30
2018,07,15,08,13,22.40
2018,07,15,08,14,22.40
2018,07,15,08,15,22.40
2018,07,15,08,16,22.40
2018,07,15,08,17,22.50
2018,07,15,08,18,22.50
2018,07,15,08,19,22.50
2018,07,15,08,20,22.60
2018,07,15,08,21,22.60
2018,07,15,08,22,22.60
2018,07,15,08,23,22.70
2018,07,15,08,24,22.60
2018,07,15,08,25,22.50
2018,07,15,08,26,22.50
2018,07,15,08,27,22.40
2018,07,15,08,28,22.30
2018,07,15,08,29,22.20
2018,07,15,08,30,22.10
2018,07,15,08,31,22.10
2018,07,15,08,32,22.00
2018,07,15,08,33,22.00
2018,07,15,08,34,22.00
2018,07,15,08,35,22.00
2018,07,15,08,36,22.10
2018,07,15,08,37,22.10
2018,07,15,08,38,22.10
2018,07,15,08,39,22.10
2018,07,15,08,40,22.10
2018,07,15,08,41,22.10
2018,07,15,08,42,22.10
2018,07,15,08,43,22.10
2018,07,15,08,44,22.10
2018,07,15,08,45,22.20
2018,07,15,08,46,22.20
2018,07,15,08,47,22.20
2018,07,15,08,48,22.20
2018,07,15,08,49,22.30
2018,07,15,08,50,22.30
2018,07,15,08,51,22.30
2018,07,15,08,52,22.30
2018,07,15,08,53,22.40
2018,07,15,08,54,22.40
2018,07,15,08,55,22.50
2018,07,15,08,56,22.60
2018,07,15,08,57,22.60
2018,07,15,08,58,22.70
2018,07,15,08,59,22.70
2018,07,15,09,00,22.70
2018,07,15,09,01,22.70
2018,07,15,09,02,22.70
2018,07,15,09,03,22.70
2018,07,15,09,04,22.70
2018,07,15,09,05,22.60
2018,07,15,09,06,22.50
2018,07,15,09,07,22.50
2018,07,15,09,08,22.40
2018,07,15,09,09,22.30
2018,07,15,09,10,22.30
2018,07,15,09,11,22.30
2018,07,15,09,12,22.20
2018,07,15,09,13,22.20
2018,07,15,09,14,22.20
2018,07,15,09,15,22.20
2018,07,15,09,16,22.20
2018,07,15,09,17,22.10
2018,07,15,09,18,22.10
2018,07,15,09,19,22.00
2018,07,15,09,20,21.90
2018,07,15,09,21,21.80
2018,07,15,09,22,21.80
2018,07,15,09,23,21.80
2018,07,15,09,24,21.80
2018,07,15,09,25,21.80
2018,07,15,09,26,21.80
2018,07,15,09,27,21.80
2018,07,15,09,28,21.80
2018,07,15,09,29,21.80
2018,07,15,09,30,21.80
2018,07,15,09,31,21.80
2018,07,15,09,32,21.90
2018,07,15,09,33,22.00
2018,07,15,09,34,22.10
2018,07,15,09,35,22.10
2018,07,15,09,36,22.20
2018,07,15,09,37,22.20
2018,07,15,09,38,22.20
2018,07,15,09,39,22.20
2018,07,15,09,40,22.20
2018,07,15,09,41,22.30
2018,07,15,09,42,22.30
2018,07,15,09,43,22.30
2018,07,15,09,44,22.40
2018,07,15,09,45,22.40
2018,07,15,09,46,22.50
2018,07,15,09,47,22.50
2018,07,15,09,48,22.50
2018,07,15,09,49,22.50
2018,07,15,09,50,22.50
2018,07,15,09,51,22.50
2018,07,15,09,52,22.50
2018,07,15,09,53,22.50
2018,07,15,09,54,22.60
2018,07,15,09,55,22.60
2018,07,15,09,56,22.70
2018,07,15,09,57,22.70
2018,07,15,09,58,22.70
2018,07,15,09,59,22.80
2018,07,15,10,00,22.80
2018,07,15,10,01,22.90
2018,07,15,10,02,22.90
2018,07,15,10,03,23.00
2018,07,15,10,04,23.00
2018,07,15,10,05,23.10
2018,07,15,10,06,23.10
2018,07,15,10,07,23.10
2018,07,15,10,08,23.10
2018,07,15,10,09,23.10
2018,07,15,10,10,23.20
2018,07,15,10,11,23.20
2018,07,15,10,12,23.10
2018,07,15,10,13,23.10
2018,07,15,10,14,23.10
2018,07,15,10,15,23.10
2018,07,15,10,16,23.00
2018,07,15,10,17,23.00
2018,07,15,10,18,22.90
2018,07,15,10,19,22.90
2018,07,15,10,20,22.90
2018,07,15,10,21,22.90
2018,07,15,10,22,23.00
2018,07,15,10,23,23.00
2018,07,15,10,24,23.00
2018,07,15,10,25,23.10
2018,07,15,10,26,23.10
2018,07,15,10,27,23.20
2018,07,15,10,28,23.20
2018,07,15,10,29,23.20
2018,07,15,10,30,23.30
2018,07,15,10,31,23.30
2018,07,15,10,32,23.30
2018,07,15,10,33,23.30
2018,07,15,10,34,23.40
2018,07,15,10,35,23.40
2018,07,15,10,36,23.40
2018,07,15,10,37,23.50
2018,07,15,10,38,23.60
2018,07,15,10,39,23.70
2018,07,15,10,40,23.70
2018,07,15,10,41,23.70
2018,07,15,10,42,23.60
2018,07,15,10,43,23.60
2018,07,15,10,44,23.60
2018,07,15,10,45,23.70
2018,07,15,10,46,23.70
2018,07,15,10,47,23.70
2018,07,15,10,48,23.70
2018,07,15,10,49,23.70
2018,07,15,10,50,23.80
2018,07,15,10,51,23.70
2018,07,15,10,52,23.70
2018,07,15,10,53,23.70
2018,07,15,10,54,23.80
2018,07,15,10,55,23.80
2018,07,15,10,56,23.80
2018,07,15,10,57,23.80
2018,07,15,10,58,23.80
2018,07,15,10,59,23.90
2018,07,15,11,00,23.90
2018,07,15,11,01,24.00
2018,07,15,11,02,24.10
2018,07,15,11,03,24.00
2018,07,15,11,04,24.00
2018,07,15,11,05,23.90
2018,07,15,11,06,24.00
2018,07,15,11,07,24.00
2018,07,15,11,08,24.00
2018,07,15,11,09,24.10
2018,07,15,11,10,24.10
2018,07,15,11,11,24.10
2018,07,15,11,12,24.10
2018,07,15,11,13,24.20
2018,07,15,11,14,24.20
2018,07,15,11,15,24.20
2018,07,15,11,16,24.20
2018,07,15,11,17,24.20
2018,07,15,11,18,24.20
2018,07,15,11,19,24.10
2018,07,15,11,20,24.10
2018,07,15,11,21,24.10
2018,07,15,11,22,24.10
2018,07,15,11,23,24.10
2018,07,15,11,24,24.10
2018,07,15,11,25,24.10
2018,07,15,11,26,24.00
2018,07,15,11,27,24.00
2018,07,15,11,28,23.90
2018,07,15,11,29,23.90
2018,07,15,11,30,23.90
2018,07,15,11,31,23.90
2018,07,15,11,32,24.00
2018,07,15,11,33,23.90
2018,07,15,11,34,23.90
2018,07,15,11,35,23.90
2018,07,15,11,36,24.00
2018,07,15,11,37,24.00
2018,07,15,11,38,24.00
2018,07,15,11,39,24.00
2018,07,15,11,40,24.00
2018,07,15,11,41,24.00
2018,07,15,11,42,24.00
2018,07,15,11,43,24.00
2018,07,15,11,44,24.10
2018,07,15,11,45,24.10
2018,07,15,11,46,24.00
2018,07,15,11,47,24.00
2018,07,15,11,48,24.00
2018,07,15,11,49,24.00
2018,07,15,11,50,23.90
2018,07,15,11,51,23.80
2018,07,15,11,52,23.80
2018,07,15,11,53,23.80
2018,07,15,11,54,23.70
2018,07,15,11,55,23.80
2018,07,15,11,56,23.80
2018,07,15,11,57,23.90
2018,07,15,11,58,23.90
2018,07,15,11,59,23.80
2018,07,15,12,00,23.80
2018,07,15,12,01,23.70
2018,07,15,12,02,23.80
2018,07,15,12,03,23.80
2018,07,15,12,04,23.90
2018,07,15,12,05,23.90
2018,07,15,12,06,23.90
2018,07,15,12,07,23.80
2018,07,15,12,08,23.90
2018,07,15,12,09,23.90
2018,07,15,12,10,23.90
2018,07,15,12,11,24.00
2018,07,15,12,12,24.00
2018,07,15,12,13,24.00
2018,07,15,12,14,24.10
2018,07,15,12,15,24.00
2018,07,15,12,16,24.00
2018,07,15,12,17,24.10
2018,07,15,12,18,24.10
2018,07,15,12,19,24.10
2018,07,15,12,20,24.20
2018,07,15,12,21,24.20
2018,07,15,12,22,24.10
2018,07,15,12,23,24.10
2018,07,15,12,24,24.10
2018,07,15,12,25,24.00
2018,07,15,12,26,24.00
2018,07,15,12,27,24.00
2018,07,15,12,28,24.10
2018,07,15,12,29,24.10
2018,07,15,12,30,24.20
2018,07,15,12,31,24.20
2018,07,15,12,32,24.20
2018,07,15,12,33,24.30
2018,07,15,12,34,24.30
2018,07,15,12,35,24.30
2018,07,15,12,36,24.30
2018,07,15,12,37,24.30
2018,07,15,12,38,24.40
2018,07,15,12,39,24.40
2018,07,15,12,40,24.40
2018,07,15,12,41,24.40
2018,07,15,12,42,24.40
2018,07,15,12,43,24.40
2018,07,15,12,44,24.40
2018,07,15,12,45,24.40
2018,07,15,12,46,24.40
2018,07,15,12,47,24.40
2018,07,15,12,48,24.40
2018,07,15,12,49,24.40
2018,07,15,12,50,24.40
2018,07,15,12,51,24.40
2018,07,15,12,52,24.40
2018,07,15,12,53,24.40
2018,07,15,12,54,24.50
2018,07,15,12,55,24.50
2018,07,15,12,56,24.60
2018,07,15,12,57,24.60
2018,07,15,12,58,24.70
2018,07,15,12,59,24.80
2018,07,15,13,00,24.80
2018,07,15,13,01,24.90
2018,07,15,13,02,24.90
2018,07,15,13,03,25.00
2018,07,15,13,04,25.10
2018,07,15,13,05,25.20
2018,07,15,13,06,25.30
2018,07,15,13,07,25.40
2018,07,15,13,08,25.40
2018,07,15,13,09,25.30
2018,07,15,13,10,25.30
2018,07,15,13,11,25.40
2018,07,15,13,12,25.40
2018,07,15,13,13,25.40
2018,07,15,13,14,25.40
2018,07,15,13,15,25.50
2018,07,15,13,16,25.50
2018,07,15,13,17,25.50
2018,07,15,13,18,25.60
2018,07,15,13,19,25.60
2018,07,15,13,20,25.60
2018,07,15,13,21,25.60
2018,07,15,13,22,25.60
2018,07,15,13,23,25.70
2018,07,15,13,24,25.70
2018,07,15,13,25,25.60
2018,07,15,13,26,25.60
2018,07,15,13,27,25.60
2018,07,15,13,28,25.60
2018,07,15,13,29,25.60
2018,07,15,13,30,25.60
2018,07,15,13,31,25.70
2018,07,15,13,32,25.70
2018,07,15,13,33,25.70
2018,07,15,13,34,25.70
2018,07,15,13,35,25.60
2018,07,15,13,36,25.70
2018,07,15,13,37,25.70
2018,07,15,13,38,25.70
2018,07,15,13,39,25.80
2018,07,15,13,40,25.80
2018,07,15,13,41,25.90
2018,07,15,13,42,26.00
2018,07,15,13,43,26.10
2018,07,15,13,44,26.20
2018,07,15,13,45,26.10
2018,07,15,13,46,26.10
2018,07,15,13,47,26.20
2018,07,15,13,48,26.20
2018,07,15,13,49,26.20
2018,07,15,13,50,26.20
2018,07,15,13,51,26.20
2018,07,15,13,52,26.20
2018,07,15,13,53,26.20
2018,07,15,13,54,26.30
2018,07,15,13,55,26.20
2018,07,15,13,56,26.20
2018,07,15,13,57,26.30
2018,07,15,13,58,26.30
2018,07,15,13,59,26.30
2018,07,15,14,00,26.30
2018,07,15,14,01,26.40
2018,07,15,14,02,26.40
2018,07,15,14,03,26.40
2018,07,15,14,04,26.50
2018,07,15,14,05,26.50
2018,07,15,14,06,26.60
2018,07,15,14,07,26.60
2018,07,15,14,08,26.70
2018,07,15,14,09,26.80
2018,07,15,14,10,26.80
2018,07,15,14,11,26.80
2018,07,15,14,12,26.90
2018,07,15,14,13,26.90
2018,07,15,14,14,27.00
2018,07,15,14,15,27.10
2018,07,15,14,16,27.10
2018,07,15,14,17,27.20
2018,07,15,14,18,27.30
2018,07,15,14,19,27.40
2018,07,15,14,20,27.40
2018,07,15,14,21,27.40
2018,07,15,14,22,27.50
2018,07,15,14,23,27.50
2018,07,15,14,24,27.70
2018,07,15,14,25,27.70
2018,07,15,14,26,27.70
2018,07,15,14,27,27.70
2018,07,15,14,28,27.70
2018,07,15,14,29,27.70
2018,07,15,14,30,27.70
2018,07,15,14,31,27.70
2018,07,15,14,32,27.70
2018,07,15,14,33,27.70
2018,07,15,14,34,27.70
2018,07,15,14,35,27.70
2018,07,15,14,36,27.80
2018,07,15,14,37,27.70
2018,07,15,14,38,27.70
2018,07,15,14,39,27.80
2018,07,15,14,40,27.80
2018,07,15,14,41,27.80
2018,07,15,14,42,27.80
2018,07,15,14,43,27.90
2018,07,15,14,44,27.90
2018,07,15,14,45,27.90
2018,07,15,14,46,28.00
2018,07,15,14,47,28.10
2018,07,15,14,48,28.10
2018,07,15,14,49,28.10
2018,07,15,14,50,28.10
2018,07,15,14,51,28.10
2018,07,15,14,52,28.00
2018,07,15,14,53,28.00
2018,07,15,14,54,28.00
2018,07,15,14,55,27.90
2018,07,15,14,56,28.00
2018,07,15,14,57,28.00
2018,07,15,14,58,28.00
2018,07,15,14,59,28.10
2018,07,15,15,00,28.20
2018,07,15,15,01,28.20
2018,07,15,15,02,28.20
2018,07,15,15,03,28.20
2018,07,15,15,04,28.20
2018,07,15,15,05,28.20
2018,07,15,15,06,28.10
2018,07,15,15,07,28.00
2018,07,15,15,08,28.00
2018,07,15,15,09,27.90
2018,07,15,15,10,27.90
2018,07,15,15,11,28.00
2018,07,15,15,12,28.00
2018,07,15,15,13,28.00
2018,07,15,15,14,28.10
2018,07,15,15,15,28.10
2018,07,15,15,16,28.10
2018,07,15,15,17,28.10
2018,07,15,15,18,28.20
2018,07,15,15,19,28.20
2018,07,15,15,20,28.20
2018,07,15,15,21,28.20
2018,07,15,15,22,28.20
2018,07,15,15,23,28.20
2018,07,15,15,24,28.30
2018,07,15,15,25,28.30
2018,07,15,15,26,28.30
2018,07,15,15,27,28.30
2018,07,15,15,28,28.30
2018,07,15,15,29,28.30
2018,07,15,15,30,28.30
2018,07,15,15,31,28.30
2018,07,15,15,32,28.30
2018,07,15,15,33,28.30
2018,07,15,15,34,28.30
2018,07,15,15,35,28.30
2018,07,15,15,36,28.30
2018,07,15,15,37,28.40
2018,07,15,15,38,28.40
2018,07,15,15,39,28.40
2018,07,15,15,40,28.40
2018,07,15,15,41,28.50
2018,07,15,15,42,28.50
2018,07,15,15,43,28.60
2018,07,15,15,44,28.60
2018,07,15,15,45,28.60
2018,07,15,15,46,28.60
2018,07,15,15,47,28.60
2018,07,15,15,48,28.60
2018,07,15,15,49,28.60
2018,07,15,15,50,28.60
2018,07,15,15,51,28.60
2018,07,15,15,52,28.60
2018,07,15,15,53,28.60
2018,07,15,15,54,28.60
2018,07,15,15,55,28.70
2018,07,15,15,56,28.80
2018,07,15,15,57,28.80
2018,07,15,15,58,28.80
2018,07,15,15,59,28.80
2018,07,15,16,00,28.80
2018,07,15,16,01,28.80
2018,07,15,16,02,28.80
2018,07,15,16,03,28.90
2018,07,15,16,04,28.80
2018,07,15,16,05,28.80
2018,07,15,16,06,28.70
2018,07,15,16,07,28.60
2018,07,15,16,08,28.60
2018,07,15,16,09,28.70
2018,07,15,16,10,28.70
2018,07,15,16,11,28.70
2018,07,15,16,12,28.60
2018,07,15,16,13,28.60
2018,07,15,16,14,28.60
2018,07,15,16,15,28.70
2018,07,15,16,16,28.70
2018,07,15,16,17,28.70
2018,07,15,16,18,28.70
2018,07,15,16,19,28.60
2018,07,15,16,20,28.70
2018,07,15,16,21,28.70
2018,07,15,16,22,28.80
2018,07,15,16,23,28.80
2018,07,15,16,24,28.90
2018,07,15,16,25,28.90
2018,07,15,16,26,28.90
2018,07,15,16,27,28.90
2018,07,15,16,28,28.90
2018,07,15,16,29,28.90
2018,07,15,16,30,28.80
2018,07,15,16,31,28.80
2018,07,15,16,32,28.80
2018,07,15,16,33,28.80
2018,07,15,16,34,28.80
2018,07,15,16,35,28.90
2018,07,15,16,36,28.90
2018,07,15,16,37,28.90
2018,07,15,16,38,29.10
2018,07,15,16,39,29.10
2018,07,15,16,40,29.10
2018,07,15,16,41,29.10
2018,07,15,16,42,29.10
2018,07,15,16,43,29.10
2018,07,15,16,44,29.20
2018,07,15,16,45,29.20
2018,07,15,16,46,29.30
2018,07,15,16,47,29.40
2018,07,15,16,48,29.50
2018,07,15,16,49,29.50
2018,07,15,16,50,29.50
2018,07,15,16,51,29.40
2018,07,15,16,52,29.40
2018,07,15,16,53,29.40
2018,07,15,16,54,29.40
2018,07,15,16,55,29.40
2018,07,15,16,56,29.40
2018,07,15,16,57,29.40
2018,07,15,16,58,29.40
2018,07,15,16,59,29.40
2018,07,15,17,00,29.40
2018,07,15,17,01,29.40
2018,07,15,17,02,29.40
2018,07,15,17,03,29.40
2018,07,15,17,04,29.40
2018,07,15,17,05,29.30
2018,07,15,17,06,29.30
2018,07,15,17,07,29.30
2018,07,15,17,08,29.40
2018,07,15,17,09,29.40
2018,07,15,17,10,29.50
2018,07,15,17,11,29.50
2018,07,15,17,12,29.60
2018,07,15,17,13,29.70
2018,07,15,17,14,29.70
2018,07,15,17,15,29.80
2018,07,15,17,16,29.70
2018,07,15,17,17,29.70
2018,07,15,17,18,29.70
2018,07,15,17,19,29.70